| time (UTC) | temp F | wind direction | speed MPH | gust MPH | rain 1hr in | rain 24hr in | rain mn in | humidity % | barometer mb |
| 20260904193020 | 61 | 53 | 1.0 | 3.0 | 0.00 | 0.06 | 0.03 | 81 | 1009.8 |
| 20260904191518 | 60 | 300 | 0.0 | 2.0 | 0.00 | 0.06 | 0.03 | 89 | 1009.9 |
| 20260904190019 | 60 | 300 | 0.0 | 1.0 | 0.00 | 0.06 | 0.03 | 90 | 1009.8 |
| 20260904184512 | 60 | 304 | 0.0 | 2.0 | 0.00 | 0.06 | 0.03 | 87 | 1009.8 |
| 20260904183014 | 60 | 300 | 1.0 | 3.0 | 0.00 | 0.06 | 0.03 | 82 | 1009.7 |
| 20260904181507 | 60 | 34 | 0.0 | 2.0 | 0.00 | 0.06 | 0.03 | 87 | 1009.6 |
| 20260904180003 | 59 | 323 | 0.0 | 2.0 | 0.00 | 0.15 | 0.03 | 90 | 1009.5 |
| 20260904174608 | 57 | 51 | 0.0 | 1.0 | 0.00 | 0.15 | 0.03 | 93 | 1009.5 |
| 20260904173104 | 57 | 51 | 0.0 | 1.0 | 0.00 | 0.15 | 0.03 | 93 | 1009.3 |
| 20260904171602 | 56 | 51 | 0.0 | 1.0 | 0.00 | 0.15 | 0.03 | 93 | 1009.3 |
| 20260904170052 | 56 | 51 | 0.0 | 1.0 | 0.00 | 0.15 | 0.03 | 94 | 1009.3 |
| 20260904164554 | 55 | 51 | 0.0 | 2.0 | 0.00 | 0.18 | 0.03 | 96 | 1009.2 |
| 20260904163050 | 55 | 51 | 0.0 | 1.0 | 0.00 | 0.18 | 0.03 | 96 | 1009.3 |
| 20260904161544 | 55 | 51 | 0.0 | 0.0 | 0.00 | 0.18 | 0.03 | 96 | 1009.1 |
| 20260904160042 | 55 | 51 | 0.0 | 0.0 | 0.00 | 0.18 | 0.03 | 96 | 1009.0 |
| 20260904154541 | 54 | 51 | 0.0 | 0.0 | 0.00 | 0.19 | 0.03 | 96 | 1008.9 |
| 20260904153039 | 54 | 51 | 0.0 | 0.0 | 0.00 | 0.19 | 0.03 | 96 | 1008.8 |
| 20260904151538 | 54 | 51 | 0.0 | 0.0 | 0.00 | 0.19 | 0.03 | 96 | 1008.6 |
| 20260904150038 | 53 | 51 | 0.0 | 0.0 | 0.01 | 0.19 | 0.03 | 96 | 1008.5 |
| 20260904144530 | 53 | 51 | 0.0 | 0.0 | 0.02 | 0.21 | 0.03 | 96 | 1008.4 |
| 20260904143027 | 53 | 51 | 0.0 | 0.0 | 0.03 | 0.21 | 0.03 | 96 | 1008.3 |
| 20260904141532 | 53 | 51 | 0.0 | 1.0 | 0.03 | 0.21 | 0.03 | 96 | 1008.2 |
| 20260904140024 | 52 | 51 | 0.0 | 0.0 | 0.02 | 0.20 | 0.02 | 96 | 1008.1 |
| 20260904134527 | 52 | 51 | 0.0 | 0.0 | 0.01 | 0.28 | 0.01 | 96 | 1008.1 |
| 20260904133021 | 52 | 51 | 0.0 | 0.0 | 0.00 | 0.27 | 0.00 | 96 | 1007.9 |
| 20260904131518 | 52 | 51 | 0.0 | 1.0 | 0.00 | 0.27 | 0.00 | 96 | 1007.7 |
| 20260904130018 | 52 | 51 | 0.0 | 0.0 | 0.00 | 0.27 | 0.00 | 96 | 1007.6 |
| 20260904124516 | 52 | 51 | 0.0 | 0.0 | 0.00 | 0.28 | 0.00 | 95 | 1007.5 |
| 20260904123015 | 52 | 51 | 0.0 | 0.0 | 0.00 | 0.28 | 0.00 | 96 | 1007.5 |
| 20260904121513 | 52 | 51 | 0.0 | 0.0 | 0.00 | 0.28 | 0.00 | 95 | 1007.3 |
| 20260904120012 | 52 | 51 | 0.0 | 0.0 | 0.00 | 0.28 | 0.00 | 95 | 1007.2 |
| 20260904114511 | 52 | 51 | 0.0 | 0.0 | 0.00 | 0.28 | 0.00 | 95 | 1007.2 |
| 20260904113013 | 52 | 51 | 0.0 | 0.0 | 0.00 | 0.28 | 0.00 | 95 | 1007.0 |
| 20260904111509 | 52 | 51 | 0.0 | 0.0 | 0.00 | 0.28 | 0.00 | 95 | 1006.8 |
| 20260904110007 | 52 | 51 | 0.0 | 1.0 | 0.00 | 0.28 | 0.00 | 95 | 1006.7 |
| 20260904104512 | 52 | 51 | 0.0 | 0.0 | 0.00 | 0.28 | 0.00 | 95 | 1006.7 |
| 20260904103007 | 52 | 51 | 0.0 | 0.0 | 0.00 | 0.28 | 0.00 | 95 | 1006.6 |
| 20260904101505 | 52 | 51 | 0.0 | 0.0 | 0.00 | 0.28 | 0.00 | 95 | 1006.6 |
| 20260904100006 | 52 | 51 | 0.0 | 0.0 | 0.00 | 0.28 | 0.00 | 95 | 1006.5 |
| 20260904094503 | 52 | 51 | 0.0 | 1.0 | 0.00 | 0.28 | 0.00 | 95 | 1006.5 |
| 20260904093001 | 52 | 51 | 0.0 | 2.0 | 0.00 | 0.28 | 0.00 | 95 | 1006.4 |
| 20260904091610 | 52 | 51 | 0.0 | 0.0 | 0.00 | 0.28 | 0.00 | 95 | 1006.5 |
| 20260904090058 | 52 | 51 | 0.0 | 0.0 | 0.00 | 0.28 | 0.00 | 95 | 1006.5 |
| 20260904084557 | 53 | 51 | 0.0 | 1.0 | 0.00 | 0.28 | 0.00 | 95 | 1006.5 |
| 20260904083109 | 53 | 51 | 0.0 | 0.0 | 0.00 | 0.28 | 0.00 | 95 | 1006.5 |
| 20260904081555 | 53 | 51 | 0.0 | 0.0 | 0.00 | 0.28 | 0.00 | 95 | 1006.4 |
| 20260904080054 | 53 | 51 | 0.0 | 0.0 | 0.00 | 0.28 | 0.00 | 95 | 1006.4 |
| 20260904074605 | 53 | 51 | 0.0 | 0.0 | 0.00 | 0.28 | 0.00 | 95 | 1006.4 |
| 20260904073052 | 53 | 51 | 0.0 | 0.0 | 0.00 | 0.28 | 0.00 | 95 | 1006.5 |
| 20260904071551 | 53 | 51 | 0.0 | 0.0 | 0.00 | 0.28 | 0.00 | 95 | 1006.4 |
| 20260904070100 | 53 | 51 | 0.0 | 0.0 | 0.00 | 0.28 | 0.00 | 95 | 1006.4 |
| 20260904064550 | 53 | 51 | 0.0 | 0.0 | 0.00 | 0.28 | 0.28 | 94 | 1006.5 |
| 20260904063053 | 53 | 51 | 0.0 | 0.0 | 0.00 | 0.28 | 0.28 | 94 | 1006.6 |
| 20260904061547 | 53 | 51 | 0.0 | 0.0 | 0.00 | 0.28 | 0.28 | 94 | 1006.5 |
| 20260904060046 | 53 | 51 | 0.0 | 0.0 | 0.00 | 0.28 | 0.28 | 94 | 1006.6 |
| 20260904054546 | 53 | 51 | 0.0 | 1.0 | 0.00 | 0.28 | 0.28 | 94 | 1006.6 |
| 20260904053045 | 53 | 51 | 1.0 | 2.0 | 0.00 | 0.28 | 0.28 | 94 | 1006.5 |
| 20260904051544 | 53 | 51 | 0.0 | 1.0 | 0.00 | 0.28 | 0.28 | 93 | 1006.4 |
| 20260904050042 | 54 | 51 | 0.0 | 0.0 | 0.00 | 0.28 | 0.28 | 93 | 1006.5 |
| 20260904044542 | 54 | 51 | 0.0 | 0.0 | 0.00 | 0.28 | 0.28 | 93 | 1006.5 |
| 20260904043040 | 54 | 51 | 0.0 | 0.0 | 0.00 | 0.28 | 0.28 | 92 | 1006.5 |
| 20260904041540 | 55 | 51 | 0.0 | 0.0 | 0.00 | 0.28 | 0.28 | 92 | 1006.6 |
| 20260904040046 | 55 | 51 | 0.0 | 0.0 | 0.00 | 0.28 | 0.28 | 92 | 1006.6 |
| 20260904034539 | 55 | 51 | 0.0 | 0.0 | 0.00 | 0.28 | 0.28 | 91 | 1006.4 |
| 20260904033039 | 55 | 51 | 0.0 | 1.0 | 0.00 | 0.28 | 0.28 | 90 | 1006.2 |
| 20260904031538 | 56 | 51 | 0.0 | 0.0 | 0.00 | 0.28 | 0.28 | 88 | 1006.0 |
| 20260904030038 | 56 | 51 | 0.0 | 1.0 | 0.00 | 0.28 | 0.28 | 87 | 1005.9 |
| 20260904024537 | 58 | 51 | 0.0 | 1.0 | 0.00 | 0.28 | 0.28 | 85 | 1005.9 |
| 20260904023044 | 58 | 53 | 0.0 | 3.0 | 0.00 | 0.28 | 0.28 | 84 | 1006.0 |
| 20260904021540 | 59 | 255 | 0.0 | 1.0 | 0.00 | 0.28 | 0.28 | 82 | 1005.9 |
| 20260904020036 | 60 | 303 | 1.0 | 3.0 | 0.00 | 0.28 | 0.28 | 79 | 1005.8 |
| 20260904014549 | 60 | 80 | 2.0 | 5.0 | 0.00 | 0.28 | 0.28 | 76 | 1005.6 |
| 20260904013039 | 60 | 341 | 1.0 | 4.0 | 0.00 | 0.28 | 0.28 | 76 | 1005.6 |
| 20260904011533 | 60 | 190 | 0.0 | 2.0 | 0.00 | 0.28 | 0.28 | 79 | 1005.6 |
| 20260904010033 | 60 | 118 | 0.0 | 2.0 | 0.00 | 0.28 | 0.28 | 79 | 1005.6 |
| 20260904004534 | 60 | 16 | 1.0 | 3.0 | 0.00 | 0.28 | 0.28 | 79 | 1005.7 |
| 20260904003032 | 59 | 127 | 0.0 | 3.0 | 0.00 | 0.28 | 0.28 | 81 | 1005.7 |
| 20260904001533 | 59 | 168 | 0.0 | 3.0 | 0.00 | 0.28 | 0.28 | 77 | 1005.8 |
| 20260904000031 | 59 | 217 | 1.0 | 3.0 | 0.00 | 0.28 | 0.28 | 80 | 1005.7 |
| 20260903234529 | 60 | 163 | 0.0 | 3.0 | 0.00 | 0.30 | 0.28 | 79 | 1005.9 |
| 20260903233028 | 59 | 84 | 0.0 | 7.0 | 0.00 | 0.30 | 0.28 | 76 | 1006.0 |
| 20260903231528 | 59 | 105 | 1.0 | 5.0 | 0.00 | 0.30 | 0.28 | 80 | 1006.2 |
| 20260903230028 | 59 | 61 | 0.0 | 6.0 | 0.00 | 0.30 | 0.28 | 79 | 1006.1 |
| 20260903224524 | 60 | 225 | 1.0 | 5.0 | 0.00 | 0.30 | 0.28 | 81 | 1006.4 |
| 20260903223026 | 59 | 142 | 0.0 | 6.0 | 0.00 | 0.30 | 0.28 | 82 | 1006.4 |
| 20260903221525 | 59 | 167 | 1.0 | 3.0 | 0.01 | 0.30 | 0.28 | 84 | 1006.2 |
| 20260903220021 | 58 | 103 | 2.0 | 6.0 | 0.03 | 0.30 | 0.28 | 88 | 1006.3 |
| 20260903214521 | 57 | 137 | 1.0 | 4.0 | 0.03 | 0.31 | 0.28 | 91 | 1006.3 |
| 20260903213020 | 56 | 98 | 1.0 | 6.0 | 0.03 | 0.31 | 0.28 | 89 | 1006.4 |
| 20260903211519 | 59 | 101 | 3.0 | 11.0 | 0.02 | 0.30 | 0.28 | 82 | 1006.4 |
| 20260903210019 | 62 | 53 | 2.0 | 6.0 | 0.00 | 0.28 | 0.26 | 76 | 1005.8 |
| 20260903204519 | 62 | 250 | 1.0 | 9.0 | 0.00 | 0.30 | 0.26 | 77 | 1005.6 |
| 20260903203017 | 61 | 51 | 1.0 | 5.0 | 0.00 | 0.30 | 0.26 | 76 | 1005.8 |
| 20260903201515 | 61 | 165 | 1.0 | 6.0 | 0.00 | 0.30 | 0.26 | 77 | 1005.9 |
| 20260903200013 | 61 | 142 | 1.0 | 6.0 | 0.00 | 0.30 | 0.26 | 82 | 1006.0 |
| 20260903194511 | 62 | 105 | 2.0 | 8.0 | 0.00 | 0.38 | 0.26 | 82 | 1006.1 |